Theta_e
351 351 356 358 358 361 362 362 357 354 354 342 340 341 343 348 348 348 349 348 347 349 349 348 349 350 350 349 350 352 353 353 354 350 349 353 353 354 353 352 354 353 352 349 350 349 348 349 348 348 347 347 347 347 346 345 346 347 346 344 343 342 341 341 340 339 337 336 336 338 338 338 338 338 337 336 334 331 330 329 330 330 333 337 339 340 340 340 339 339 340 340 340 340 340 341 341
353 355 358 359 359 360 360 363 355 350 351 341 341 343 344 349 348 349 349 347 348 348 348 348 348 349 349 349 350 350 353 354 355 355 354 354 353 354 352 350 354 354 352 350 350 350 348 349 348 347 346 347 347 346 346 346 347 346 346 344 343 342 342 342 341 339 338 337 337 338 338 339 338 338 336 335 332 331 329 329 330 331 334 338 340 341 341 341 341 340 341 341 341 341 341 341 341
356 358 359 359 360 358 357 359 350 344 346 340 340 346 348 350 349 349 347 348 348 347 348 348 349 350 348 348 350 350 352 354 355 355 355 355 354 353 352 351 353 353 352 351 351 351 350 349 348 346 345 346 347 347 346 347 347 345 344 344 344 343 343 342 341 340 339 338 338 338 339 339 338 336 335 333 331 330 329 329 330 333 337 339 341 341 340 340 341 340 341 341 341 341 341 341 341
359 360 360 361 361 358 356 356 350 339 337 338 339 347 349 349 350 348 348 349 348 348 349 348 349 350 349 347 349 351 351 353 354 355 356 356 354 353 354 353 351 352 352 351 351 351 350 348 347 346 345 347 347 347 347 346 346 345 344 344 344 344 343 342 341 340 339 339 339 339 339 338 337 336 334 333 331 330 329 331 333 336 338 340 340 340 339 339 340 340 341 340 340 340 341 340 341
360 361 359 360 360 357 355 352 346 336 333 339 340 346 349 346 347 346 349 350 349 349 347 348 347 348 351 350 350 351 352 353 355 355 355 356 355 353 353 353 351 352 352 352 351 350 348 347 348 346 345 346 346 346 346 345 345 345 344 343 344 344 344 343 341 340 340 340 341 340 338 337 335 336 336 334 332 330 331 333 335 336 338 338 338 338 339 339 339 339 340 339 338 339 339 340 340
359 360 358 358 358 354 350 339 332 334 336 343 342 346 348 346 348 347 350 350 350 349 348 349 346 348 351 352 351 351 352 354 355 355 356 356 356 354 352 353 352 352 351 351 350 348 346 345 347 346 345 345 345 345 345 345 344 343 343 343 343 344 344 343 343 341 341 341 340 339 337 336 336 337 337 336 334 333 334 336 336 337 338 337 338 338 338 338 338 339 340 339 339 340 339 340 340
359 360 358 356 356 354 347 333 329 334 338 343 343 346 347 347 350 349 350 349 349 349 348 348 347 349 349 351 351 352 353 354 354 354 356 356 355 354 353 352 351 350 350 350 348 347 346 346 346 347 347 345 345 345 345 344 343 343 343 343 343 344 344 343 343 342 341 340 339 338 337 337 338 338 338 337 337 336 337 337 336 337 337 337 338 338 338 337 337 338 340 340 341 342 340 340 340
356 357 356 351 351 350 341 331 333 337 338 342 343 346 348 349 350 349 349 349 348 347 347 347 348 348 348 351 352 352 353 354 354 354 356 355 356 354 354 353 353 351 350 350 350 348 347 347 347 348 347 345 345 345 344 343 343 342 342 342 342 344 344 343 342 341 340 339 339 339 338 338 339 339 339 338 338 338 337 337 336 337 337 337 337 338 337 336 337 338 340 340 341 342 340 340 340
355 352 351 349 347 339 333 331 335 339 340 341 342 345 348 349 351 350 349 349 349 348 348 347 347 348 351 353 353 354 354 355 355 355 356 355 355 354 355 355 354 354 353 352 350 348 347 347 347 347 346 344 343 343 343 342 342 342 342 342 342 343 343 342 341 341 340 340 339 339 339 339 339 339 339 339 339 339 338 337 337 337 336 337 338 338 337 337 337 339 340 340 341 342 341 341 340
354 351 349 347 343 331 328 331 334 338 340 340 342 345 347 348 350 351 349 349 349 348 348 347 349 349 350 352 353 354 353 354 355 355 355 354 353 351 354 356 355 354 352 351 349 347 346 346 345 345 344 343 343 342 342 342 342 343 342 342 343 343 342 342 342 341 341 340 339 339 340 340 340 340 340 340 339 339 338 337 337 336 336 337 339 337 337 337 338 339 339 340 341 341 341 341 340
352 350 348 342 335 328 326 329 333 338 340 339 343 345 346 347 349 351 350 349 349 348 347 348 348 348 352 353 354 354 353 355 355 355 355 354 353 352 354 356 354 352 350 349 347 346 345 345 345 344 344 344 344 344 343 344 344 343 343 343 343 343 343 342 342 342 341 340 340 340 340 340 341 340 340 339 339 339 339 338 338 337 338 338 339 337 337 338 339 338 339 340 340 340 341 341 340
350 348 348 340 332 331 331 332 334 338 340 338 341 344 345 346 347 348 349 349 350 348 347 348 347 348 352 354 354 353 354 354 354 355 355 355 354 354 355 355 353 351 351 350 347 347 347 347 346 346 345 345 345 345 345 345 344 344 343 343 343 343 343 343 342 342 341 341 341 341 341 341 341 340 340 340 340 340 340 339 339 339 340 339 338 338 339 340 339 339 339 340 340 340 341 341 341
348 347 348 339 336 337 335 334 336 338 339 339 339 342 344 345 346 346 349 349 349 348 347 347 346 348 350 352 353 353 354 354 355 355 355 355 354 354 355 355 353 352 352 350 349 349 349 348 348 348 346 346 346 346 345 345 344 344 343 343 343 343 343 342 342 342 342 341 341 341 341 341 340 340 340 341 340 340 340 340 340 341 341 339 338 339 341 340 340 340 340 341 341 340 341 341 342
347 350 348 339 340 340 337 336 337 336 335 339 340 342 343 344 345 346 348 347 348 349 347 346 346 349 351 353 352 352 354 354 354 355 355 355 353 354 354 354 354 353 352 351 351 350 349 349 349 348 347 347 346 346 345 345 345 344 344 344 343 343 343 343 342 343 342 342 342 341 341 341 341 340 341 341 340 341 340 340 340 339 339 338 338 340 340 341 341 341 341 341 341 341 341 341 341
347 349 346 342 341 337 340 339 338 336 335 340 341 343 343 343 344 345 346 346 347 348 346 345 346 349 349 350 351 352 354 354 354 354 355 354 353 354 354 354 354 354 353 352 352 351 350 351 349 347 348 348 346 347 346 345 345 345 345 344 343 343 343 343 343 343 343 342 342 342 341 341 341 341 341 340 340 341 340 340 340 338 336 336 337 339 340 340 341 341 341 341 341 341 341 341 341
347 347 344 345 341 334 338 341 340 337 337 341 341 343 342 342 344 344 346 346 347 345 345 346 346 348 347 348 350 353 353 353 354 354 354 354 354 355 355 355 354 354 351 349 350 351 351 350 348 347 347 348 347 348 348 346 344 344 344 343 343 342 343 343 343 343 343 342 342 342 341 342 342 341 340 341 341 339 340 339 340 338 335 336 337 339 340 340 341 341 341 340 340 340 341 341 341
348 346 341 344 341 334 338 341 341 338 339 342 343 345 340 341 344 344 345 346 345 344 345 345 345 346 346 347 350 353 354 353 354 354 354 355 355 355 355 356 355 354 351 349 349 349 349 348 347 347 348 348 348 349 348 346 343 342 342 342 342 342 342 343 343 343 342 342 342 340 340 343 345 344 342 342 343 339 339 339 338 338 337 339 339 339 340 340 341 340 340 339 340 340 341 342 341
347 343 345 349 346 334 341 341 341 341 342 342 342 344 341 341 343 343 344 345 345 344 345 345 344 346 346 348 351 353 353 353 354 354 355 355 354 355 355 356 356 355 351 350 348 348 348 347 347 347 347 347 349 349 346 344 341 341 342 341 341 341 342 341 342 342 342 342 340 338 340 346 346 345 344 344 345 343 342 342 340 340 340 340 339 340 341 341 341 341 341 340 340 341 341 343 343
345 341 345 352 347 335 343 341 342 343 343 344 343 344 342 342 342 343 342 344 344 343 345 344 344 347 348 350 353 353 353 353 354 354 355 355 354 354 355 355 355 355 354 352 349 348 348 348 348 348 347 348 350 348 346 343 339 342 344 342 341 341 341 341 342 343 344 343 340 340 344 347 346 345 345 344 344 343 343 342 341 341 340 340 340 341 342 343 343 341 341 341 340 341 342 344 345
343 342 344 348 342 338 344 340 343 343 345 346 344 345 343 342 341 342 342 342 342 343 344 345 347 348 350 351 352 352 352 353 353 354 354 354 354 354 354 354 354 355 355 354 352 350 349 350 350 350 349 348 349 348 347 345 341 344 346 345 344 343 341 341 344 345 346 345 343 344 346 347 345 346 344 342 342 343 345 344 342 343 342 342 343 342 342 345 344 342 343 342 341 342 345 346 347
343 342 344 346 340 339 342 341 343 343 345 346 346 345 343 342 340 341 342 340 339 343 343 344 347 349 351 351 352 352 352 353 352 352 352 353 353 353 354 354 354 354 355 355 354 353 352 352 350 349 348 346 348 348 348 348 344 346 348 348 348 346 344 345 347 347 347 347 345 345 347 346 343 348 347 344 346 348 350 348 346 347 346 346 345 344 347 348 346 345 346 346 346 346 347 347 347
342 342 346 346 341 340 341 341 341 343 345 346 346 344 343 343 340 340 341 340 339 341 342 343 346 348 350 351 351 351 351 351 351 351 351 352 352 352 353 353 354 354 354 354 354 354 352 351 349 348 346 345 348 348 350 350 347 348 350 350 350 349 348 349 349 349 348 346 345 347 349 348 345 349 350 348 349 351 351 350 350 350 349 349 348 348 350 349 346 347 348 347 348 348 348 347 346
338 341 345 345 341 341 340 340 341 341 344 346 346 345 345 344 341 341 342 340 339 340 341 342 345 348 349 349 350 350 350 350 349 350 349 350 350 351 352 352 353 354 354 354 355 353 352 351 349 348 346 345 348 349 351 351 349 351 352 351 351 352 351 351 351 351 350 344 344 349 351 351 350 351 351 350 351 352 351 351 351 351 350 351 350 350 350 349 348 348 348 348 348 347 348 348 347
336 339 341 342 342 342 340 340 339 340 343 346 345 346 345 345 343 342 342 341 340 340 340 342 345 347 348 348 349 348 350 349 348 350 349 348 349 350 350 351 352 353 353 353 355 354 353 352 349 348 348 346 346 349 351 352 351 352 352 350 350 352 352 351 351 352 352 346 343 347 349 351 352 352 352 352 352 352 352 352 352 351 350 350 351 350 350 350 349 348 349 348 348 347 347 348 349
334 336 340 342 341 342 340 338 338 339 343 344 344 345 345 345 344 343 342 340 340 340 341 343 345 346 347 347 347 347 348 348 347 348 349 348 348 348 349 350 351 353 353 353 355 354 353 353 350 349 349 346 345 347 350 352 352 352 353 351 350 351 351 352 352 352 353 350 346 343 344 350 352 352 352 352 352 353 352 351 350 350 350 350 350 349 350 350 348 349 349 348 349 349 347 347 348
334 335 338 340 340 340 339 338 339 339 342 343 343 344 345 345 343 343 344 340 338 340 341 343 345 344 345 347 346 347 348 347 347 347 348 348 347 348 348 349 350 352 352 353 354 353 354 354 351 351 350 346 345 346 349 352 352 352 353 351 351 350 349 352 353 352 352 351 351 345 341 346 350 352 352 352 352 353 352 349 348 349 350 349 348 349 349 349 349 349 348 348 349 348 348 348 348
335 336 337 338 340 340 339 338 339 339 341 343 342 342 344 344 342 342 344 343 339 340 342 343 344 343 344 345 345 347 348 346 345 346 347 347 347 348 349 349 350 351 352 353 353 354 355 354 353 352 351 347 346 347 349 352 352 352 352 352 353 351 350 352 352 351 351 351 352 349 343 343 347 350 353 352 352 352 350 348 348 347 349 350 348 349 348 348 348 349 348 347 346 347 348 348 346
334 335 336 338 339 339 338 338 339 339 341 342 342 342 344 343 342 342 344 344 341 341 342 343 344 344 344 344 345 347 348 346 345 346 346 347 348 349 349 349 350 350 351 352 353 354 354 354 354 353 351 347 347 349 351 351 350 351 351 351 353 353 351 351 350 351 351 352 353 351 346 344 345 348 350 349 350 351 350 348 349 347 349 350 348 349 348 345 346 348 349 347 345 348 348 346 345
333 333 335 336 338 337 337 339 340 340 340 343 343 341 343 344 342 343 345 344 344 342 342 344 344 344 345 344 345 348 349 347 346 347 347 348 349 349 350 350 350 350 351 352 352 352 352 352 352 353 351 346 345 349 351 350 349 349 350 351 353 353 351 351 351 352 352 353 353 349 345 345 346 346 346 345 346 350 350 348 348 347 347 348 347 347 346 345 345 347 349 347 346 346 345 343 343
332 334 334 334 335 335 338 339 339 339 340 344 341 336 338 344 343 343 345 345 345 344 343 343 343 345 345 344 346 349 350 349 348 347 347 349 349 349 350 350 350 350 351 352 352 352 352 352 352 353 352 347 341 346 349 348 347 347 350 352 353 351 350 351 352 353 353 353 354 351 346 345 345 345 344 342 344 347 348 348 347 347 347 348 348 347 346 346 346 347 347 345 344 343 343 342 342
333 333 333 334 330 331 338 339 338 340 340 344 341 334 337 343 343 344 346 345 345 345 344 343 343 345 345 345 347 350 351 350 350 348 348 349 349 349 349 350 350 349 351 352 352 353 353 353 352 353 354 350 342 341 344 345 345 347 350 353 352 351 351 352 352 353 353 353 355 354 349 346 345 344 343 342 343 345 347 349 348 348 348 347 347 347 347 347 346 346 345 344 344 343 342 340 340
333 329 327 332 329 331 338 338 338 340 340 344 340 334 339 341 342 345 346 345 345 345 345 345 344 345 345 345 347 349 350 350 350 349 348 349 348 349 348 349 349 349 351 352 353 354 354 354 354 353 354 353 346 339 341 345 344 345 349 352 352 352 351 352 353 352 353 353 354 355 353 349 346 344 343 343 343 345 347 349 350 349 348 347 348 348 346 345 345 344 344 342 342 341 338 339 341
333 329 324 329 329 330 336 338 339 340 341 343 340 337 340 340 341 345 346 345 345 346 347 346 345 344 345 345 346 348 349 350 351 349 349 348 349 349 348 348 349 348 351 353 354 355 355 355 353 353 354 353 349 341 338 342 343 341 344 349 352 352 351 352 353 352 352 353 355 355 354 351 348 345 343 343 343 344 346 349 350 349 348 349 347 344 343 344 344 342 341 340 339 339 338 339 341
328 330 327 329 332 330 332 337 339 340 342 343 342 341 341 341 342 345 346 346 345 346 347 347 346 346 345 346 346 347 348 350 351 351 350 350 349 349 349 349 349 349 350 353 356 355 355 355 351 351 354 355 351 344 337 339 343 341 341 345 348 349 350 352 352 353 353 353 355 356 355 351 349 347 344 343 343 344 345 347 349 349 349 349 344 340 342 343 343 341 339 338 338 338 339 339 340
325 327 327 328 332 331 331 336 339 340 342 343 343 341 342 342 342 345 347 346 346 346 346 347 347 347 347 347 346 347 347 350 352 351 350 350 351 351 350 350 350 351 351 353 356 356 355 355 352 347 351 355 352 345 338 338 340 340 340 344 346 346 348 351 352 353 354 353 355 356 354 350 348 348 345 343 344 345 345 347 348 348 348 345 339 339 342 341 342 340 337 339 340 340 341 341 341
329 330 330 328 329 330 334 337 339 339 341 343 342 341 342 344 344 347 348 347 347 346 346 347 348 348 348 348 347 347 347 349 352 352 351 351 351 352 352 352 352 351 352 353 356 358 354 354 354 347 345 351 351 344 340 341 341 342 343 346 348 347 347 351 353 353 354 355 356 358 354 349 347 347 345 345 345 345 347 347 348 347 345 342 338 339 342 340 339 337 337 340 341 342 342 342 343
333 333 332 331 330 330 335 338 338 339 339 340 343 342 342 343 344 347 349 348 347 347 347 346 347 348 349 350 349 348 348 348 350 351 351 351 352 353 354 353 353 353 353 354 356 358 353 350 354 348 340 346 347 343 342 343 345 346 347 348 351 350 349 351 352 352 354 355 356 356 354 351 349 346 344 345 345 346 347 346 348 346 343 343 341 341 342 340 338 337 339 341 341 343 344 344 344
333 332 331 331 330 331 336 337 337 339 338 338 342 342 342 343 342 346 349 348 347 348 348 347 348 348 349 350 351 350 349 348 350 351 350 351 352 354 356 355 355 355 354 355 357 357 353 349 352 349 341 343 345 342 342 344 347 349 351 351 353 352 352 353 353 353 354 354 354 353 351 350 348 345 344 345 346 346 346 347 347 344 341 343 340 339 341 342 340 338 339 342 342 343 344 343 341
331 332 330 328 331 333 335 336 338 338 337 338 341 341 340 343 342 344 348 348 349 349 348 348 348 348 349 350 351 351 351 350 350 351 350 351 352 353 355 356 356 356 356 356 357 358 354 348 349 349 345 342 343 344 342 343 347 350 352 353 353 352 352 353 353 353 354 354 354 352 350 349 347 346 345 346 345 345 346 347 345 341 339 340 338 339 342 342 340 338 339 341 341 341 341 342 340
331 331 327 326 331 331 328 333 338 339 338 339 341 340 339 344 344 344 346 349 350 349 348 349 348 349 349 350 351 351 352 352 351 351 351 351 352 353 355 356 357 356 357 357 358 359 354 346 343 347 347 343 344 345 343 343 347 349 350 350 352 353 351 352 353 352 353 354 354 352 352 350 348 348 348 347 347 346 347 345 340 339 338 337 338 341 342 341 340 339 340 341 340 339 340 341 340
330 331 328 328 333 332 330 334 339 339 339 340 340 336 336 343 344 344 346 348 350 350 349 349 349 350 350 350 351 351 351 353 352 351 352 352 352 353 355 357 358 357 358 358 359 360 353 344 342 345 349 348 345 345 344 344 346 347 347 346 348 352 352 352 353 353 353 352 353 352 351 350 349 350 349 348 348 347 344 339 338 339 339 338 340 342 342 340 338 338 340 340 339 339 338 339 340
326 330 332 331 334 334 334 336 336 332 331 337 338 329 330 340 344 345 345 345 348 350 350 350 349 349 351 351 351 352 352 352 353 352 353 354 352 353 355 357 358 358 359 359 360 360 354 346 345 346 351 352 348 346 344 344 345 344 346 347 348 350 350 351 351 352 353 352 351 351 350 350 349 348 347 345 346 345 339 337 338 340 342 342 342 343 342 339 336 337 339 339 340 337 334 336 339
322 329 333 333 334 333 333 334 331 326 327 337 339 330 328 335 340 345 345 345 347 348 350 350 350 350 350 352 351 352 353 351 353 354 354 355 353 353 354 357 359 358 359 359 359 361 357 352 349 348 350 351 349 347 344 343 345 344 346 350 351 351 350 350 349 349 352 352 351 350 350 351 347 344 346 346 344 344 340 337 338 339 342 344 344 343 340 337 337 339 339 339 339 336 332 336 338
322 330 333 332 333 332 333 332 329 328 331 336 338 335 329 328 335 344 344 344 346 347 349 349 350 351 350 352 352 352 353 351 353 355 355 355 354 353 353 356 358 358 358 358 359 360 360 357 353 348 346 347 348 348 344 342 345 346 346 348 350 351 352 353 350 347 349 350 351 351 350 352 349 342 345 349 344 341 340 339 340 341 343 343 342 340 337 338 340 340 338 336 335 335 336 337 338
326 331 332 332 333 332 333 332 329 331 331 327 331 334 330 327 334 343 343 342 344 346 348 349 349 350 350 352 352 351 352 352 352 355 357 356 354 354 353 355 358 358 358 358 358 359 360 361 356 348 345 348 348 347 344 343 345 346 346 346 347 350 352 354 352 349 348 348 350 352 349 350 350 343 341 346 345 343 342 343 343 341 339 338 335 335 337 339 340 339 336 335 335 337 337 337 337
328 330 332 332 333 332 333 332 328 328 327 323 327 330 328 327 332 337 340 339 342 344 345 348 350 350 350 352 352 352 353 353 353 355 358 357 354 354 353 355 357 358 358 357 358 359 360 363 359 349 346 349 347 346 344 343 345 346 346 346 347 348 350 351 352 353 350 347 345 347 346 346 349 347 342 343 344 345 345 343 341 337 333 335 335 337 341 339 337 337 337 338 338 338 338 336 336
328 329 330 330 332 333 332 332 329 325 323 324 327 329 328 326 329 334 338 339 342 345 344 347 350 349 349 350 350 351 352 354 354 354 357 357 355 354 353 354 356 357 357 356 358 358 359 364 360 349 346 349 348 347 347 346 347 347 346 346 346 346 347 348 350 352 352 349 344 345 348 347 349 349 347 345 343 345 345 340 339 338 337 338 337 337 341 339 336 336 337 338 338 337 338 337 335
327 328 328 325 326 328 326 326 326 322 321 324 327 330 328 324 328 335 341 342 342 344 344 345 346 347 348 347 347 349 350 353 355 354 355 357 357 355 353 354 356 357 357 356 358 359 359 363 361 351 346 349 348 348 349 349 348 347 346 346 345 344 345 347 348 349 350 351 349 349 350 349 348 348 348 348 345 346 345 339 337 340 340 340 337 336 339 339 338 339 338 338 337 337 337 335 334
327 326 324 320 319 321 321 320 321 320 321 326 328 329 327 325 331 339 341 342 341 343 344 342 343 345 347 348 349 348 348 350 353 354 354 356 356 356 354 354 356 358 357 355 357 359 360 363 362 353 346 348 348 347 349 349 349 347 346 345 344 343 343 346 347 347 348 351 352 351 351 349 348 348 347 347 346 345 344 340 337 338 339 338 337 337 339 338 338 339 338 338 338 338 337 336 335
325 323 320 319 318 319 320 319 320 320 320 325 328 329 325 325 333 340 341 340 341 342 343 341 342 342 342 349 352 350 348 348 351 354 355 355 356 357 355 354 357 358 358 355 356 359 360 363 363 354 347 348 348 347 348 348 348 347 346 345 345 343 343 345 347 346 348 350 352 351 351 350 348 348 347 346 346 345 344 341 336 335 337 335 334 337 339 338 338 338 338 338 338 338 337 337 337
324 326 324 321 320 320 320 319 319 320 320 322 326 327 323 324 333 341 340 340 341 341 342 341 340 339 340 347 352 351 348 346 351 355 356 354 355 357 355 355 357 358 358 356 355 358 360 363 362 353 346 347 347 347 347 347 347 347 346 346 346 345 345 345 347 346 347 349 352 352 352 350 349 349 347 346 346 343 343 341 333 330 335 333 330 335 338 338 337 338 338 338 338 338 337 337 337
324 328 325 321 323 324 321 320 321 321 320 321 322 324 327 331 338 342 340 340 341 340 341 340 339 340 339 342 348 352 349 347 352 357 357 355 355 356 356 356 356 357 358 356 356 358 359 361 362 353 345 346 347 347 347 347 347 347 347 346 346 347 346 346 346 346 345 346 349 351 351 350 350 349 347 347 346 342 340 340 334 330 333 332 331 334 338 339 338 338 338 337 338 338 337 337 337
323 323 320 323 329 327 320 320 323 322 319 321 322 322 327 332 334 339 340 339 340 340 339 340 339 339 338 338 342 346 349 351 354 357 358 357 355 357 357 357 357 358 358 357 357 357 354 357 361 353 344 345 346 347 347 347 347 347 347 347 346 347 347 347 346 345 344 344 346 348 348 347 348 349 348 346 345 343 338 334 334 336 335 334 336 337 337 338 338 337 337 337 338 337 336 337 336
323 319 321 326 328 327 324 320 321 321 319 321 321 320 323 324 326 336 341 339 340 340 339 338 339 339 338 339 340 343 348 353 355 356 358 358 358 358 358 357 357 358 358 357 355 352 347 348 353 348 343 343 345 346 346 347 347 347 347 346 346 347 346 347 347 346 344 343 344 344 344 344 343 346 348 345 344 343 335 327 330 338 338 334 336 338 337 337 337 337 337 337 337 337 337 337 333
324 323 326 325 320 319 322 319 319 320 320 320 320 320 321 321 325 335 340 339 340 340 339 339 338 338 337 339 342 346 349 351 354 357 357 359 360 359 359 358 358 359 357 354 350 347 343 343 345 345 343 343 344 345 345 347 347 347 347 347 346 347 347 346 348 349 347 344 343 342 341 342 341 342 344 342 338 338 336 328 326 334 337 328 325 331 333 332 331 329 330 333 336 335 333 335 334
325 325 327 326 321 319 320 320 320 320 319 319 320 320 320 325 331 337 338 339 340 339 340 339 337 338 338 339 341 344 347 351 354 356 357 359 360 360 360 358 358 359 358 354 350 346 343 344 343 343 344 344 344 345 344 345 346 347 347 347 347 347 347 347 347 349 350 346 344 343 341 343 344 342 341 336 330 331 333 328 324 330 331 321 319 323 323 323 323 321 321 324 332 336 333 332 334
321 320 321 322 324 323 322 322 321 320 319 319 321 319 321 329 336 338 339 339 339 339 340 339 337 337 337 338 338 340 345 351 355 356 357 359 359 360 361 359 357 359 358 355 352 348 346 348 345 343 344 345 344 345 345 344 345 345 346 347 348 347 347 347 346 347 349 346 345 345 341 343 347 344 338 333 327 326 325 323 325 329 325 317 319 319 318 320 319 319 319 318 325 336 335 331 333
323 320 320 321 322 321 319 318 320 321 319 319 321 319 321 331 337 337 338 338 337 339 339 338 337 337 336 337 337 337 343 352 355 355 356 358 359 359 360 359 358 359 359 357 355 351 349 352 349 345 346 345 344 345 345 344 343 343 345 346 347 348 346 347 347 346 348 346 346 346 342 343 350 347 337 330 327 324 320 319 322 324 319 316 319 318 318 320 318 318 318 316 320 328 330 330 333
Wind_Speed
6 7 8 8 8 6 6 6 1 1 2 1 4 6 8 10 10 10 9 9 9 10 12 12 13 12 10 13 15 17 15 11 8 5 8 11 14 15 15 16 15 14 14 15 16 17 17 20 22 22 22 22 21 20 19 18 19 22 22 21 21 21 21 21 19 18 17 16 15 14 13 11 10 10 9 10 9 10 10 10 10 10 10 11 12 12 11 11 11 11 11 11 12 12 11 11 10
6 7 8 6 7 6 3 4 1 1 1 3 4 5 9 12 10 6 9 10 10 11 13 14 15 16 15 13 15 19 19 19 18 18 18 16 17 16 16 16 17 16 16 16 16 18 18 20 22 21 22 21 20 20 19 18 18 20 21 21 21 20 20 20 19 18 17 15 14 12 11 10 9 9 9 9 9 9 9 9 9 9 10 11 11 11 10 10 10 10 10 11 11 11 11 10 10
7 8 8 7 9 8 4 3 3 1 3 4 4 6 9 12 8 5 12 13 13 13 12 14 12 11 13 13 14 16 16 19 22 22 21 18 17 15 15 16 17 17 17 17 17 18 19 20 21 22 22 20 19 18 18 18 18 18 19 20 20 20 19 19 18 17 16 14 13 11 10 10 9 9 9 9 8 8 8 8 8 9 10 10 10 9 9 9 9 9 10 10 10 10 10 10 10
9 8 9 8 8 9 4 4 5 2 5 3 4 9 9 10 12 10 14 14 13 12 11 14 11 11 14 15 15 16 16 19 18 18 19 16 17 17 17 17 17 19 17 17 17 19 20 21 21 21 21 21 20 18 18 17 17 17 18 19 19 18 18 18 17 15 14 13 11 11 10 10 10 9 8 8 8 7 7 7 7 9 9 9 8 8 8 8 9 9 10 10 10 10 10 10 10
10 8 8 7 6 6 5 4 2 4 5 4 4 10 10 9 13 13 13 13 11 11 10 11 11 13 16 15 13 13 15 18 16 16 18 18 18 17 17 18 18 19 18 17 18 19 22 23 22 21 21 21 20 18 18 17 16 17 17 17 17 17 17 17 16 15 13 12 11 11 10 10 9 8 7 7 7 7 6 6 7 7 8 7 7 7 7 8 8 9 9 10 10 10 10 10 10
8 8 8 10 9 9 7 2 4 5 6 6 5 8 11 10 12 13 12 12 11 10 9 10 13 15 16 17 17 14 13 15 17 18 20 21 20 17 16 17 19 20 19 19 19 21 23 23 22 21 21 21 20 18 17 16 15 16 16 16 17 16 16 16 15 14 13 12 11 10 10 8 7 7 7 7 6 6 6 6 6 7 7 6 6 6 7 7 7 8 9 9 10 10 10 9 10
6 7 7 8 10 10 5 3 6 6 7 8 7 8 10 11 11 12 11 11 10 9 10 11 14 14 12 14 16 16 13 14 18 20 21 22 21 19 16 16 19 21 21 21 21 22 22 22 21 21 21 21 20 19 18 16 15 16 16 16 16 16 15 15 14 14 13 12 11 9 8 8 7 7 6 6 6 5 5 5 5 6 5 5 5 5 6 6 7 8 9 9 9 9 10 9 9
5 6 6 6 6 6 2 5 7 6 7 9 9 9 10 11 11 10 9 8 9 9 11 12 13 13 12 14 15 14 14 15 20 23 23 23 21 20 18 17 19 19 20 21 21 21 21 21 21 21 21 20 19 19 18 17 17 17 17 16 16 16 15 14 14 13 12 11 10 9 8 8 7 6 6 5 5 4 4 4 4 4 4 4 4 5 5 6 7 8 8 9 9 9 10 10 9
5 7 8 7 5 2 3 6 7 7 8 9 9 9 9 9 8 8 8 8 8 10 12 11 11 12 15 18 17 14 16 18 22 23 22 22 21 20 20 19 19 20 20 21 20 20 21 21 21 21 21 20 19 19 19 18 18 17 17 17 16 16 15 15 14 13 12 11 10 9 8 8 7 6 5 4 4 4 3 3 3 3 2 2 3 4 5 6 6 7 8 9 9 9 10 10 10
5 8 9 6 4 0 4 5 6 8 9 9 9 9 8 7 6 6 8 9 9 10 11 10 12 15 17 17 16 15 17 20 21 22 20 19 19 20 21 20 20 21 21 22 21 21 21 21 21 21 22 21 20 20 20 20 19 18 17 16 16 15 15 14 13 12 11 10 10 9 8 7 7 6 5 4 4 3 3 3 2 1 1 2 3 4 5 6 7 7 8 9 9 9 9 9 10
2 8 13 7 1 2 4 5 6 8 8 9 9 8 8 7 7 6 8 10 9 9 11 10 14 18 17 16 16 17 19 20 21 21 20 18 17 19 22 20 19 21 22 22 22 22 22 22 22 22 23 22 21 20 20 20 19 18 16 15 15 14 13 13 12 11 11 10 9 8 8 7 6 5 5 4 3 3 3 3 2 0 1 2 3 4 5 6 7 8 9 9 9 9 9 9 10
1 5 10 5 2 3 4 5 7 7 8 9 8 7 7 7 7 7 8 10 9 9 10 10 14 16 14 14 16 18 20 19 20 20 20 19 19 19 21 20 18 19 21 21 21 22 21 21 22 23 23 22 21 20 20 19 18 17 16 14 13 13 12 11 11 11 10 10 9 8 7 7 6 5 5 4 3 3 2 2 1 1 2 3 4 4 5 6 8 8 9 9 9 9 9 9 9
4 4 6 4 2 2 3 4 5 6 6 8 8 7 7 6 7 9 9 9 8 8 9 11 16 14 12 15 17 20 20 19 20 20 19 19 19 19 20 20 19 18 19 20 20 21 20 20 20 20 21 21 20 19 18 17 16 16 15 14 13 12 11 11 11 10 10 9 9 8 7 6 6 5 5 4 3 3 2 2 2 2 3 4 4 5 6 7 8 9 9 9 9 9 8 9 9
7 10 7 2 1 1 3 3 3 4 6 9 9 7 6 5 7 10 10 9 8 8 10 13 17 13 14 16 16 20 20 20 21 20 19 19 19 19 19 21 21 19 19 19 19 20 19 19 18 18 19 18 17 17 16 15 15 14 14 13 12 12 11 11 11 10 10 9 8 7 7 6 5 5 4 3 3 2 2 3 3 3 4 5 5 7 7 8 8 9 9 10 9 9 9 9 9
10 12 6 3 1 2 3 3 2 2 6 8 9 8 6 6 7 9 10 10 9 11 11 13 13 10 13 15 15 21 22 23 22 20 19 19 19 19 20 20 20 20 19 19 18 18 18 17 17 17 17 16 16 15 15 14 14 13 13 12 11 11 11 10 10 10 9 8 7 6 6 5 4 3 3 2 2 2 3 4 4 5 5 6 7 8 9 9 9 9 9 10 9 9 9 9 8
9 10 4 1 3 2 3 3 2 2 6 9 10 9 8 8 6 7 8 9 11 12 10 11 9 6 13 16 18 24 25 24 22 21 20 20 20 19 19 19 19 18 18 19 18 18 17 17 17 17 16 16 15 14 13 12 12 12 12 11 11 11 10 10 9 8 8 7 6 5 5 4 3 2 2 2 2 2 3 4 4 6 6 7 7 8 9 10 10 10 9 9 9 9 8 8 7
6 8 4 2 5 1 3 3 3 3 7 10 10 9 8 9 6 7 8 9 13 12 9 10 7 6 13 18 23 26 26 25 23 22 22 21 21 19 18 18 18 17 18 19 18 18 18 17 17 17 16 15 14 13 12 11 10 10 10 10 10 10 9 9 8 7 6 6 5 4 4 4 3 3 2 3 3 3 4 5 6 7 7 8 8 8 9 10 10 9 9 9 9 9 8 8 7
6 5 1 4 7 2 3 3 5 5 8 9 9 8 8 9 8 9 8 10 13 11 9 10 8 8 14 21 26 28 26 25 24 23 23 21 21 20 19 18 18 17 17 19 18 18 17 17 17 16 16 15 14 12 11 11 10 10 9 9 9 8 8 7 7 6 6 5 4 4 4 4 4 4 3 4 4 4 5 5 6 7 7 8 8 9 9 9 9 8 8 8 8 8 9 9 8
7 3 1 6 4 6 3 4 5 5 8 9 8 7 7 9 9 9 9 11 12 11 11 12 11 13 18 25 28 28 27 26 24 23 22 22 21 20 19 18 18 17 17 18 19 18 17 17 16 15 15 14 14 12 11 11 10 10 9 9 8 7 7 7 7 7 6 6 5 4 4 4 4 5 4 5 5 5 5 6 6 7 8 8 8 8 7 8 7 7 7 8 8 8 8 9 9
10 5 1 7 2 6 3 5 3 5 9 9 8 7 8 9 9 9 9 12 11 10 12 13 15 18 21 26 28 28 28 26 24 23 22 21 20 20 19 19 19 18 18 17 18 18 16 16 15 15 15 14 14 12 12 11 11 10 10 9 8 8 8 8 8 7 7 6 6 6 5 5 5 5 5 5 5 5 6 7 5 6 7 6 5 5 5 6 6 6 8 8 8 7 7 8 9
10 6 5 8 4 3 5 5 3 6 7 9 9 7 8 10 9 8 9 10 8 10 13 14 17 20 24 26 28 28 27 26 24 23 22 21 20 20 19 19 19 18 18 17 17 18 17 17 17 16 16 16 14 13 12 12 12 11 10 10 9 9 9 8 8 8 8 7 7 6 6 6 5 5 5 5 4 4 5 6 6 7 6 5 5 3 4 7 6 5 6 7 6 6 7 7 7
8 5 11 13 5 2 6 4 4 6 5 9 9 7 9 10 9 8 9 6 5 11 14 15 18 21 25 26 27 27 27 27 25 23 23 22 21 20 19 19 18 18 18 17 18 18 18 18 18 17 17 17 15 14 13 12 12 11 11 11 10 10 9 9 8 8 8 8 7 6 6 6 5 5 6 4 4 4 5 5 7 8 5 5 6 3 3 6 6 6 6 6 7 7 7 7 7
9 6 8 10 4 0 3 3 5 5 6 9 8 8 10 10 9 8 8 3 4 13 14 15 19 21 24 26 26 26 26 27 25 24 23 22 22 20 20 19 19 19 18 17 18 19 19 19 18 17 16 17 15 14 13 12 13 12 11 11 11 10 9 9 9 8 8 8 8 7 6 6 5 5 5 5 5 4 5 5 6 8 5 5 7 3 3 5 4 7 6 6 7 7 7 9 9
11 7 6 7 5 4 2 3 6 4 6 9 8 9 10 9 8 9 10 5 5 12 15 16 19 21 23 25 26 25 25 26 25 24 23 22 22 20 20 20 19 19 18 17 18 19 19 19 19 17 17 17 16 15 15 13 12 12 11 11 11 10 10 9 8 8 9 9 9 9 8 6 5 5 5 5 5 5 6 6 6 7 5 5 7 4 4 5 4 6 7 6 9 9 9 9 8
12 10 7 6 6 7 5 4 5 6 6 9 10 10 10 8 8 9 11 9 7 11 16 17 19 21 22 24 25 25 25 25 24 23 23 22 21 21 19 19 19 19 19 18 17 18 19 19 19 18 17 17 16 16 15 14 13 12 12 11 11 11 10 8 8 9 9 8 9 10 10 8 6 6 6 6 6 6 7 7 7 6 5 6 6 5 5 6 5 6 7 7 8 11 11 9 8
12 12 12 8 8 10 7 7 6 7 7 10 11 9 10 9 8 9 11 12 10 12 16 18 20 22 22 23 23 24 25 24 24 24 23 21 22 21 20 20 19 19 19 18 18 17 18 19 19 19 18 18 18 16 16 14 13 13 12 12 11 11 10 9 9 9 8 8 8 11 11 9 8 6 6 8 7 8 9 9 8 5 6 8 7 5 6 7 7 7 9 9 8 10 10 10 9
10 8 12 12 11 11 8 7 7 7 8 11 11 9 11 11 7 7 12 13 12 15 17 18 20 21 22 22 23 23 24 24 23 23 23 22 22 22 21 20 20 19 19 19 18 17 18 19 19 20 19 18 18 17 16 15 14 14 13 12 11 11 11 10 10 9 9 8 8 12 11 10 10 7 7 10 8 9 10 9 8 7 5 7 7 6 7 8 8 8 11 11 9 8 8 9 9
11 8 11 11 12 12 9 8 7 7 8 11 11 9 11 13 7 7 15 15 13 16 17 18 20 20 22 22 22 23 23 23 23 23 23 23 23 23 22 21 20 20 19 19 18 18 18 19 19 20 20 19 19 18 17 16 16 14 13 13 11 11 12 12 10 10 10 8 10 14 12 10 10 9 11 12 9 9 11 9 9 8 6 6 7 8 10 11 11 9 9 10 8 7 8 8 9
14 11 10 10 12 11 12 11 9 9 9 12 11 8 10 12 8 9 18 17 15 18 17 19 19 20 21 21 22 22 22 23 23 23 23 23 22 22 22 21 21 20 20 20 19 18 18 18 19 20 21 21 20 18 18 18 17 15 14 13 12 13 13 12 11 11 11 10 12 16 14 11 11 10 13 12 9 9 10 10 10 9 7 7 10 12 13 13 12 9 7 8 7 7 9 8 8
13 11 10 9 11 10 12 12 10 10 10 14 12 6 8 11 11 11 18 18 17 19 18 19 19 20 21 21 22 22 23 24 24 23 23 23 22 22 23 21 21 20 19 20 20 19 18 18 19 19 20 22 22 20 19 18 18 16 15 13 13 14 13 12 12 11 11 11 11 14 14 13 12 12 13 13 11 10 9 10 10 10 8 8 11 14 14 12 9 8 7 8 8 7 8 7 7
11 11 10 8 8 7 11 11 11 11 11 15 13 6 7 11 14 15 18 18 18 18 19 20 19 20 21 21 22 22 23 24 24 23 23 23 22 22 23 22 22 21 19 20 21 21 19 18 18 18 19 21 22 23 20 18 18 16 14 13 13 14 13 12 12 11 11 11 10 12 13 13 14 13 14 13 11 11 10 9 10 11 10 10 12 12 10 8 7 7 7 8 7 7 7 7 7
9 11 9 8 9 6 11 12 11 11 11 16 14 6 5 10 15 18 19 18 18 18 19 20 20 20 21 22 22 22 23 23 23 23 23 24 23 22 23 23 23 22 20 20 21 22 20 20 19 18 19 20 21 23 22 19 18 17 15 14 13 14 14 13 12 11 11 11 10 11 13 14 14 13 13 13 11 11 10 10 11 12 12 12 10 7 6 6 6 7 7 7 7 8 8 7 6
10 10 9 10 10 7 9 11 12 13 11 15 14 8 4 8 13 18 20 19 19 18 19 20 20 20 21 21 22 22 22 23 24 24 24 24 24 22 22 23 23 23 21 20 21 23 22 21 21 19 19 20 20 21 22 19 17 17 16 15 15 15 14 13 12 12 11 11 10 11 13 15 13 12 12 12 11 10 10 10 12 13 11 9 7 5 5 5 5 6 7 7 7 8 7 6 6
10 10 10 10 12 9 8 9 12 15 11 13 15 11 7 7 14 18 19 20 19 18 18 20 19 20 21 21 22 22 22 24 26 26 26 25 24 23 23 23 24 23 22 21 21 23 23 22 23 21 19 20 21 20 19 18 16 15 15 15 15 15 15 13 12 12 12 12 11 11 14 16 14 13 12 11 10 10 10 11 12 11 7 6 5 5 4 4 6 6 7 7 6 6 5 5 6
12 12 10 10 12 11 10 9 12 16 13 12 14 12 10 7 14 17 18 19 19 18 17 19 20 20 21 22 22 23 23 24 26 26 26 26 25 24 23 23 24 24 23 22 22 22 23 23 23 22 21 20 21 20 18 17 16 15 15 15 15 16 16 15 13 13 13 12 12 12 16 18 15 14 12 10 10 10 11 11 11 9 5 5 5 4 3 4 5 7 7 6 5 4 4 5 5
15 14 11 10 11 11 11 10 13 15 13 13 14 13 12 8 12 15 16 18 18 17 17 18 19 20 21 22 22 23 24 24 25 26 26 26 25 24 24 23 24 24 24 23 23 23 24 23 22 23 23 22 21 20 18 18 18 17 17 17 17 17 16 16 15 14 13 12 11 13 17 17 14 14 12 10 10 10 11 10 9 7 5 4 5 3 2 4 6 7 6 5 5 4 4 5 5
17 15 12 12 13 10 11 12 14 16 13 13 14 14 14 12 12 13 15 17 17 17 17 17 19 20 21 22 22 23 24 24 24 26 27 27 26 25 24 24 24 25 24 25 25 25 25 24 24 24 24 23 23 22 20 19 20 19 19 19 18 17 16 16 15 15 14 13 13 15 17 16 13 12 12 11 11 10 10 9 7 5 4 4 4 2 2 4 5 5 5 5 6 5 4 3 4
19 15 12 12 13 11 14 14 15 16 12 11 14 15 15 15 14 14 15 15 15 17 18 18 19 20 21 22 22 23 23 23 23 25 27 27 27 26 25 25 25 26 26 26 26 26 26 26 25 25 25 25 25 24 22 21 21 20 20 19 18 16 15 15 15 15 14 13 14 16 16 15 13 12 11 11 11 11 9 6 5 4 4 4 5 4 2 3 5 5 5 5 5 5 3 3 4
18 14 12 11 11 12 15 16 16 15 10 10 14 14 13 15 15 14 16 15 15 17 18 18 19 19 20 22 22 23 23 23 24 26 28 29 29 28 27 26 26 27 27 27 27 26 27 28 27 26 26 26 26 25 24 22 21 21 20 18 17 15 14 14 15 14 13 13 13 15 14 14 13 12 12 12 11 9 6 5 5 6 5 4 6 5 2 4 5 5 5 4 4 4 4 4 4
16 14 12 10 12 13 11 10 13 13 9 9 12 11 10 13 14 14 16 18 17 18 19 19 19 20 20 21 22 23 24 24 25 26 28 30 30 30 30 28 27 27 27 27 28 27 29 30 29 29 28 28 27 26 25 24 22 21 20 19 17 15 14 13 14 14 13 13 13 13 12 12 12 11 11 11 9 6 5 5 6 6 7 6 7 5 2 4 6 4 3 3 3 3 2 3 4
17 18 14 11 15 16 12 9 11 9 10 11 12 9 9 12 14 14 15 18 18 19 20 20 21 21 21 21 22 23 25 26 26 27 28 30 31 32 32 30 29 28 29 29 29 29 31 31 31 30 29 28 28 27 26 25 24 22 21 19 18 17 15 14 14 14 15 15 14 12 11 10 9 9 9 8 7 6 6 7 7 6 7 7 7 4 3 5 5 3 4 4 2 3 2 1 3
16 20 19 18 16 16 16 14 13 9 10 13 13 10 8 12 15 14 12 15 17 18 19 20 21 22 22 22 22 23 25 26 27 27 28 30 31 32 32 32 31 30 30 30 29 29 31 32 31 31 29 28 28 28 27 25 25 24 21 19 19 19 18 17 17 15 14 14 13 11 11 10 10 9 9 9 8 8 8 8 8 7 7 6 5 4 6 7 5 3 4 3 2 4 3 1 1
13 16 20 22 19 16 18 16 12 8 8 11 14 11 7 10 14 14 14 15 17 17 17 20 22 23 24 25 24 25 25 26 28 28 29 30 31 32 33 33 33 31 31 30 28 28 30 31 32 32 30 28 28 28 28 27 25 24 22 20 19 19 19 18 18 16 13 11 10 9 10 10 11 10 9 9 9 8 9 10 9 8 6 5 4 5 5 5 3 3 3 3 2 3 3 2 1
12 15 20 22 22 21 19 17 12 9 8 10 14 14 10 8 11 14 17 17 17 18 17 18 21 23 25 26 26 27 27 27 28 30 31 31 31 33 34 34 33 32 30 30 29 28 29 30 32 33 31 28 27 28 28 27 25 24 24 22 20 19 19 18 17 16 14 13 11 10 10 9 10 11 9 9 9 9 10 9 8 7 5 6 8 8 5 3 5 5 4 5 3 2 3 3 1
14 16 18 18 20 21 20 18 13 10 10 10 14 15 11 8 10 12 16 18 18 19 19 18 20 23 24 25 26 27 29 29 29 31 32 32 32 33 34 34 33 32 30 30 30 29 29 30 32 33 31 29 28 28 28 28 26 25 24 24 22 21 19 17 16 15 15 15 13 12 12 11 11 13 11 10 10 9 9 8 8 8 7 8 9 7 4 5 6 6 5 4 2 2 3 3 3
15 18 19 17 19 19 18 17 12 10 12 12 14 16 11 8 10 12 13 15 15 16 16 17 18 20 21 22 25 26 29 30 31 31 32 32 32 32 32 33 32 31 30 30 30 29 29 29 32 34 32 30 29 28 27 27 26 25 25 24 24 23 21 19 16 14 14 15 15 14 15 14 12 11 11 12 11 9 9 8 8 9 8 8 7 5 6 7 6 5 5 4 4 4 3 3 3
16 17 18 18 16 14 13 13 12 11 13 14 18 19 15 10 10 11 12 12 14 14 13 14 16 18 20 21 22 24 26 30 32 32 32 31 31 30 31 32 32 32 31 30 30 30 30 30 32 35 34 31 30 28 27 26 26 26 26 25 25 24 22 20 19 17 16 16 16 16 15 13 11 9 9 10 10 9 9 9 7 7 6 6 7 7 7 6 3 3 5 5 5 4 4 3 2
16 13 14 13 10 10 10 11 13 12 12 14 19 22 19 13 10 11 13 15 16 14 13 14 16 20 22 23 23 23 26 28 30 31 31 31 30 30 31 32 33 33 32 32 31 31 31 30 32 36 35 32 32 30 28 27 26 26 26 26 26 25 23 21 20 20 19 18 17 14 13 11 10 10 10 9 9 9 9 9 7 7 7 7 7 6 7 6 4 4 5 5 4 4 4 3 2
15 13 13 13 10 10 11 11 12 12 12 15 17 18 17 14 10 12 14 16 16 15 16 17 17 21 25 26 27 27 27 27 28 30 30 31 32 32 33 34 34 35 35 35 33 32 32 31 33 36 36 34 33 32 29 28 27 27 27 26 26 26 25 23 22 21 21 20 17 14 13 13 11 11 12 11 10 10 10 9 7 8 9 8 7 7 6 7 7 6 6 5 5 4 3 3 3
16 14 13 12 10 11 11 11 12 12 13 17 17 13 12 11 11 15 17 15 16 17 20 20 17 19 23 27 28 27 24 26 29 31 32 33 34 34 35 36 36 37 37 37 36 34 33 32 34 36 37 35 34 33 32 30 29 28 28 27 27 26 26 25 24 23 22 21 18 15 14 14 13 13 13 12 12 12 11 10 8 8 9 8 8 9 7 6 7 7 6 6 5 5 4 4 3
15 15 14 13 11 11 11 10 11 12 12 16 17 13 11 10 10 15 19 18 16 16 20 22 19 18 19 22 24 24 23 27 31 33 33 35 36 36 36 37 38 38 38 38 37 36 35 33 35 38 38 37 36 35 34 33 31 30 29 29 28 27 27 26 25 24 23 22 19 16 15 15 14 14 13 13 13 13 13 12 9 8 9 9 8 9 8 6 6 6 6 6 6 6 5 5 4
13 13 14 14 13 12 11 10 12 13 12 13 14 11 9 10 9 10 14 17 18 16 17 21 22 22 18 19 23 26 26 30 33 34 34 36 36 37 37 38 38 38 38 38 38 39 37 35 36 40 40 38 38 36 35 35 33 32 32 31 30 29 28 27 26 25 24 23 21 19 17 16 16 15 13 13 14 14 13 13 10 9 9 9 8 9 8 7 6 6 6 6 6 6 6 6 6
10 13 16 15 15 15 12 12 14 14 13 11 11 11 10 12 11 10 12 13 14 14 16 19 23 23 16 14 18 23 26 30 33 34 34 35 37 38 39 38 39 39 39 40 40 41 42 39 38 40 40 39 38 37 37 36 35 34 33 33 32 32 30 29 27 26 25 24 23 22 19 17 17 16 15 15 15 14 14 13 11 10 9 9 9 9 9 9 8 6 5 6 6 6 6 6 7
11 11 15 15 16 16 11 11 13 14 13 11 13 17 14 11 10 11 16 16 14 15 17 19 22 20 15 15 18 22 27 30 32 34 34 35 37 39 40 40 40 41 42 43 43 43 44 43 42 42 41 39 39 38 37 37 36 35 34 34 34 33 32 30 28 27 26 25 25 24 22 20 19 17 17 16 16 16 15 13 12 11 10 10 10 10 10 10 10 9 7 7 8 8 8 8 8
20 13 13 13 13 14 12 11 12 13 13 10 15 19 16 11 9 11 16 18 18 18 19 19 19 17 16 19 19 19 22 26 30 32 33 34 37 39 40 40 40 40 42 43 44 44 44 44 44 42 40 39 39 38 38 38 37 36 36 35 34 34 33 32 30 28 28 27 27 26 25 23 22 20 20 20 18 17 16 14 13 13 13 12 10 11 12 12 11 10 9 9 9 9 9 9 9
23 18 13 12 12 13 13 11 9 12 13 11 15 17 13 10 11 14 17 18 19 19 20 18 16 19 20 21 20 17 19 25 28 30 32 34 35 38 39 40 39 40 41 43 43 44 43 43 43 43 40 39 38 38 39 38 38 38 37 36 35 35 34 33 32 31 30 29 28 28 26 25 25 25 24 23 20 18 17 16 14 15 16 14 12 12 13 14 13 11 11 10 9 9 10 10 9
18 17 15 13 11 11 12 12 12 12 11 10 12 13 10 9 11 15 15 15 16 18 19 16 16 23 23 19 21 22 23 26 27 28 31 33 34 35 36 38 38 38 40 42 42 43 42 41 42 43 42 40 39 39 39 39 39 39 38 37 36 36 35 34 34 33 33 32 31 30 27 26 27 28 28 25 22 21 20 18 17 18 18 15 13 14 14 15 15 13 12 11 11 12 12 11 11
15 15 16 15 12 11 12 13 14 12 11 11 11 11 10 10 11 11 12 13 14 16 16 15 17 22 18 13 19 24 24 26 27 28 29 30 32 33 34 36 37 38 40 41 41 41 41 40 41 42 42 41 40 40 40 39 39 40 39 38 37 36 36 35 35 35 35 34 33 32 30 28 27 28 30 28 25 24 23 21 21 21 19 15 15 15 15 15 15 14 12 11 13 15 14 13 12
Wind_Direction
175 160 134 125 163 206 241 245 277 169 211 145 88 80 94 93 86 88 95 99 90 81 77 72 67 67 77 86 81 68 56 52 47 64 99 119 122 126 139 135 132 133 132 132 131 134 139 142 147 148 146 146 140 137 139 144 149 144 140 141 142 142 141 142 143 143 141 139 136 133 131 127 120 111 105 103 102 103 100 96 91 84 79 77 74 68 61 57 55 52 52 49 47 47 46 45 44
163 148 142 147 192 223 259 228 295 324 156 86 78 91 111 88 68 74 83 83 83 83 84 84 85 87 84 83 86 76 65 66 73 87 104 115 115 120 132 131 131 137 135 134 133 133 136 139 142 143 144 144 138 138 142 146 145 141 141 142 142 144 144 144 145 144 144 143 139 139 136 130 122 114 110 107 107 105 100 95 89 84 81 78 72 65 58 55 54 50 48 45 44 43 41 40 41
149 149 167 187 207 227 280 260 242 174 82 86 98 89 96 93 100 106 86 86 91 93 92 91 83 77 78 73 78 82 80 82 87 99 111 116 117 122 126 129 135 137 133 132 133 133 137 139 140 140 142 143 139 141 144 143 140 140 142 143 145 146 146 146 146 146 146 145 143 143 138 132 124 117 115 112 111 107 102 95 89 87 84 80 72 64 55 51 50 46 43 39 39 39 39 37 36
163 175 187 207 222 228 244 238 231 119 83 92 97 83 78 93 110 101 91 98 102 99 93 91 73 53 71 84 87 88 90 91 94 104 115 121 124 130 127 128 134 133 130 130 133 136 142 143 139 139 143 144 143 143 144 142 139 139 141 144 147 145 146 146 147 150 150 147 147 145 139 132 123 119 118 115 113 109 104 94 90 89 85 80 71 59 48 44 44 41 36 32 30 31 33 31 32
179 202 205 226 240 249 254 231 196 60 63 88 92 95 102 99 99 98 100 106 105 98 98 101 87 72 68 76 89 92 94 93 98 105 112 120 124 130 126 124 128 130 131 130 133 138 145 144 141 142 146 147 145 145 144 144 141 139 139 141 143 144 146 146 149 152 152 150 147 143 137 129 124 122 119 117 114 109 102 94 91 86 83 76 64 51 41 38 36 33 30 27 25 25 27 26 29
194 222 221 233 255 279 282 267 86 62 36 73 103 97 109 108 99 104 105 102 97 90 95 96 95 95 78 71 76 85 101 102 107 111 115 122 125 126 121 123 130 132 132 131 134 139 144 146 144 144 147 148 147 146 143 142 141 139 138 138 139 142 145 145 149 151 150 148 144 140 135 131 128 126 122 116 110 107 100 94 90 84 80 70 57 45 37 34 29 26 23 22 25 23 22 23 27
230 245 225 230 255 264 266 32 64 74 39 57 97 100 106 110 106 109 110 108 101 91 92 94 101 107 94 89 81 80 100 109 115 118 121 124 124 124 120 121 128 131 132 132 134 138 142 146 147 146 147 148 147 147 144 140 141 139 136 137 139 141 142 144 149 149 149 147 144 142 139 136 132 128 123 117 112 108 100 95 87 84 78 65 49 37 32 29 22 19 17 18 21 19 17 19 23
249 266 243 246 256 234 202 60 56 70 66 58 74 92 103 113 121 121 117 113 105 104 105 104 108 102 96 101 93 89 100 107 116 120 123 125 124 126 124 121 122 125 131 133 134 135 136 140 145 148 149 146 146 148 146 143 143 140 136 140 142 140 141 146 149 151 150 149 147 145 142 138 135 132 128 124 121 113 102 96 88 86 78 58 34 24 21 17 14 11 10 11 14 14 12 12 14
245 267 258 257 262 223 88 77 81 74 79 81 81 91 104 121 132 121 110 103 104 117 116 110 110 104 100 100 99 102 107 113 118 120 125 128 128 130 129 125 122 123 129 133 134 135 135 137 142 147 148 146 146 148 148 147 144 140 138 142 142 140 144 148 150 151 150 149 147 144 144 143 144 143 141 138 129 124 111 104 101 91 69 41 15 11 9 4 7 4 2 3 7 10 7 7 8
245 261 263 263 279 8 88 78 85 79 74 82 92 102 113 127 130 118 109 105 111 114 105 101 107 111 110 106 106 112 119 123 123 123 127 128 128 129 127 126 127 128 131 134 135 137 139 141 143 145 147 146 146 147 147 146 143 141 141 141 140 141 145 147 148 149 148 146 147 148 151 154 156 155 153 151 143 140 128 122 124 103 32 0 354 359 358 356 358 357 356 356 0 2 0 3 5
272 256 260 265 11 25 76 83 91 89 86 86 89 103 113 124 131 126 116 113 110 106 108 113 113 115 114 105 104 118 128 130 128 127 128 127 125 121 122 127 132 132 131 133 135 137 140 140 142 144 146 146 146 147 146 145 145 144 143 142 142 144 147 147 146 146 147 148 152 157 159 161 161 161 163 162 157 153 146 139 139 139 330 328 335 347 350 349 351 351 350 350 352 353 353 357 1
265 263 267 280 62 45 58 85 95 95 102 101 95 100 106 125 137 130 123 119 115 117 126 130 124 122 117 107 113 127 134 134 132 131 129 130 126 121 123 128 133 133 132 134 135 136 137 137 139 142 144 145 146 146 146 147 147 147 147 147 147 149 150 148 147 148 151 154 157 159 161 161 161 164 168 167 163 161 164 156 173 268 303 314 322 335 341 344 346 346 345 344 344 345 347 351 355
236 260 262 295 24 43 65 77 93 113 109 93 91 96 110 129 130 129 126 122 131 131 121 129 134 129 117 115 127 136 138 139 137 134 133 131 130 127 127 128 131 133 133 136 136 137 137 137 140 141 143 143 144 146 147 149 150 151 151 151 152 152 151 150 151 152 153 156 157 158 159 158 160 166 168 167 168 177 189 200 233 271 292 303 318 332 339 341 339 338 337 337 338 340 344 347 349
241 253 258 308 6 50 68 81 110 129 100 94 102 110 122 115 114 129 135 133 135 122 114 135 140 127 119 123 136 146 144 143 141 137 136 134 132 130 129 130 131 133 134 136 137 139 140 140 143 144 143 143 145 147 149 153 155 155 154 154 154 152 153 154 155 155 156 157 157 159 159 158 162 167 172 173 183 196 219 237 251 268 285 305 323 331 333 333 331 331 332 331 332 337 343 346 347
252 268 291 331 266 139 91 87 96 101 103 111 116 123 115 94 116 135 141 138 118 116 127 145 144 130 141 147 151 153 148 146 145 141 138 136 135 131 132 132 133 138 140 139 139 140 142 143 146 146 145 147 150 150 153 158 158 156 156 156 156 157 159 159 159 159 158 159 161 162 161 161 165 173 185 193 208 221 237 250 261 274 290 311 321 323 322 324 326 327 329 329 330 336 344 348 349
268 291 291 259 267 187 122 101 83 78 112 117 121 137 122 107 132 124 121 129 121 130 144 150 147 142 159 157 151 151 148 149 147 142 141 138 137 135 134 135 136 142 144 144 145 144 147 149 150 151 150 152 154 154 156 161 161 159 160 162 163 165 166 166 167 166 165 167 169 168 164 162 164 178 194 211 228 233 248 260 270 284 299 309 313 317 319 322 323 324 329 331 335 340 345 346 346
272 286 283 307 280 212 101 107 100 93 111 119 135 148 127 126 135 104 110 131 135 146 147 145 146 148 156 150 147 149 148 149 149 146 144 142 142 141 140 141 142 147 148 150 152 151 153 154 153 155 155 155 157 157 158 162 166 166 166 169 171 171 173 173 172 170 171 174 176 172 162 161 173 190 201 223 237 244 256 264 276 290 301 307 312 319 321 322 321 325 331 337 346 346 346 345 342
253 267 0 299 273 100 87 88 82 110 123 123 144 151 131 139 137 126 141 138 140 150 139 140 143 136 139 140 145 149 149 152 152 151 150 149 150 149 149 150 150 153 153 153 156 158 158 157 158 159 157 157 158 158 161 166 170 169 170 172 175 176 174 171 170 170 172 178 182 174 165 174 194 209 214 227 240 251 260 271 285 294 301 305 311 318 321 321 321 328 335 345 352 352 357 357 351
237 260 89 254 266 72 75 83 82 118 127 126 143 149 135 139 140 154 163 140 146 152 139 148 144 129 131 140 146 150 153 155 156 157 156 155 156 156 155 156 158 158 158 159 160 163 163 161 162 161 160 159 160 163 167 170 171 170 170 172 175 177 173 172 173 174 178 183 186 183 182 194 210 225 231 235 247 262 273 285 296 304 306 303 307 312 319 322 323 332 340 348 350 359 5 358 352
221 225 205 268 328 83 81 77 96 112 125 141 142 147 138 134 143 171 167 140 157 157 146 157 147 138 141 146 150 153 156 158 161 162 160 160 160 161 160 160 163 162 163 164 162 166 166 165 165 165 168 167 166 169 171 172 172 174 172 174 179 179 179 179 179 182 187 188 190 194 200 210 215 232 244 247 262 278 279 290 310 317 308 301 307 313 321 326 330 341 343 342 347 4 4 355 349
223 206 177 253 308 103 114 92 119 110 134 143 136 156 142 138 149 171 168 148 167 161 156 162 151 149 151 152 154 157 159 161 164 165 164 164 164 165 165 164 165 164 165 166 167 169 169 170 171 173 175 174 174 173 173 174 174 178 177 179 182 184 185 184 187 190 194 196 195 197 207 222 220 228 247 250 260 264 266 290 312 313 312 306 311 325 326 321 328 338 329 330 348 10 1 351 334
249 222 187 224 273 65 96 110 128 111 151 140 143 165 134 144 158 170 176 171 173 155 158 162 156 157 156 158 159 160 163 164 168 169 169 168 169 169 168 167 167 166 167 169 172 174 174 176 176 178 178 178 179 175 175 176 177 181 182 182 182 188 188 186 194 195 200 203 198 199 210 231 230 228 249 254 243 249 260 284 295 298 311 304 298 319 323 310 317 319 315 328 345 357 337 310 300
250 243 206 230 250 179 76 136 140 132 173 150 155 156 133 157 163 168 179 178 138 144 155 156 156 161 160 162 163 164 167 168 171 172 172 172 172 172 170 171 170 169 171 173 176 178 179 180 180 181 182 183 182 178 179 181 181 182 185 185 183 190 191 190 197 196 211 213 199 200 205 226 240 234 247 258 255 257 263 265 273 283 295 291 289 308 313 299 307 314 322 332 325 323 303 294 301
236 250 233 236 231 221 230 182 143 155 187 152 160 158 150 174 161 167 176 151 124 139 148 151 154 161 163 164 166 169 170 172 174 174 175 175 176 175 173 172 173 173 174 175 177 181 182 183 185 184 184 186 185 184 183 186 186 182 189 191 184 190 193 193 197 194 216 224 211 208 202 211 232 234 242 258 264 256 253 256 264 279 289 286 293 315 310 298 305 312 316 318 310 305 298 302 305
231 252 252 229 223 223 230 230 159 166 194 154 168 170 159 177 157 169 175 148 144 144 143 149 155 160 166 169 170 171 173 175 176 176 177 177 179 178 175 175 175 175 176 177 178 182 185 186 189 187 188 189 189 190 186 188 191 186 192 193 189 196 193 190 200 199 212 223 225 224 212 209 220 233 245 245 253 260 258 262 266 274 279 275 285 302 297 297 307 304 297 298 305 306 307 314 313
220 230 241 230 224 226 225 239 191 173 198 167 173 175 164 175 155 168 172 147 155 156 146 153 158 163 169 172 174 174 175 178 177 178 179 178 181 180 179 179 178 179 179 179 180 183 186 189 192 191 191 192 192 194 191 190 193 192 194 192 196 203 194 193 203 202 209 214 228 240 228 216 219 222 243 241 242 261 267 271 273 271 279 281 280 283 286 297 305 301 296 297 303 307 311 317 316
238 228 241 232 227 234 224 235 212 184 199 180 182 183 170 173 169 179 164 151 163 160 152 158 162 167 171 173 176 176 177 180 180 180 180 180 183 183 183 182 182 182 181 182 183 184 186 190 194 193 193 194 194 196 194 196 197 196 198 196 199 204 200 201 205 204 213 211 222 247 243 228 226 216 233 245 243 262 271 273 274 266 266 281 288 287 285 290 297 302 301 303 310 312 315 317 320
261 254 259 239 227 239 233 236 219 197 194 183 191 193 173 170 192 195 157 155 169 164 160 163 167 169 171 174 175 177 180 182 181 183 183 183 184 185 186 185 184 184 183 185 185 187 190 191 196 198 196 194 195 196 197 201 201 199 202 201 201 207 207 205 210 210 214 210 217 241 245 235 235 229 237 245 246 264 274 276 275 271 265 276 289 287 283 290 299 303 306 318 329 326 323 324 326
251 244 256 243 226 233 232 230 210 201 184 180 195 198 182 175 204 197 155 158 172 168 167 166 171 172 172 177 176 179 183 183 184 186 186 185 185 187 188 188 186 186 187 188 188 189 191 192 197 201 200 199 197 197 200 204 203 203 204 204 205 212 213 207 210 214 215 214 222 239 244 239 242 244 252 256 257 264 273 280 279 278 279 278 281 284 292 303 306 305 317 333 334 326 323 323 318
239 236 242 242 229 220 221 218 199 198 173 181 199 201 197 185 203 193 155 164 176 171 173 172 176 175 175 179 177 181 185 186 187 187 188 187 188 189 190 190 188 188 188 190 191 191 190 191 194 199 203 204 202 199 202 206 205 206 207 206 209 215 216 212 213 216 218 216 226 243 246 244 247 250 259 267 270 272 277 282 283 287 287 280 287 296 305 310 307 307 319 324 323 324 318 312 308
227 232 233 235 240 215 202 198 188 189 167 183 200 206 213 185 190 187 160 171 179 173 176 177 180 178 179 182 180 184 186 189 189 188 190 189 190 191 191 192 190 190 190 191 193 192 191 191 192 195 201 206 207 205 204 207 207 207 209 209 214 219 217 215 218 220 223 222 225 242 249 248 248 251 261 270 274 278 283 286 289 292 290 287 293 300 308 312 313 317 318 319 321 316 306 307 305
219 228 228 219 238 219 183 181 185 188 169 187 203 216 209 168 176 180 168 177 181 177 179 179 183 182 182 185 184 186 187 190 191 191 192 191 192 192 192 193 192 192 191 191 193 193 193 193 193 195 200 204 208 210 206 209 211 207 210 210 214 223 221 218 219 219 225 229 224 235 254 258 253 253 259 270 275 277 280 284 283 284 289 297 300 309 328 328 324 322 317 318 314 303 300 302 297
214 223 230 215 221 212 174 169 186 196 180 189 206 229 225 150 165 174 171 182 183 181 181 181 186 185 185 188 187 188 188 190 192 194 193 193 193 192 193 193 193 193 192 192 192 194 194 195 198 195 199 204 207 214 209 208 213 210 211 212 214 221 223 221 222 222 223 229 228 228 249 260 260 260 261 268 276 280 279 276 278 279 285 297 305 330 347 331 324 323 316 317 311 305 304 293 289
209 213 228 223 219 215 184 167 190 203 189 189 203 224 238 160 158 171 174 184 187 186 185 183 187 188 188 191 192 192 191 191 194 196 194 193 194 193 193 193 193 193 193 193 192 196 196 197 205 200 197 204 208 217 217 212 214 213 213 217 220 223 224 222 222 228 226 227 229 227 244 255 259 265 268 271 274 278 282 279 283 285 279 289 314 346 344 321 323 322 319 318 307 307 308 295 292
213 209 215 222 223 221 204 182 190 202 192 192 203 217 231 172 153 171 179 186 190 190 189 187 188 189 190 193 196 195 194 195 196 197 196 194 194 194 193 193 194 193 194 195 193 198 198 197 208 208 200 203 208 216 222 220 219 218 218 221 226 228 228 225 220 226 230 230 229 229 245 255 261 266 268 273 273 278 288 287 285 286 279 287 316 343 330 313 318 317 320 312 298 305 300 289 285
225 220 213 216 225 225 218 194 177 194 202 200 203 210 221 192 161 176 184 189 194 193 191 191 190 191 193 196 199 199 197 198 198 198 197 195 195 194 194 193 193 194 194 195 194 198 201 198 204 212 208 206 211 215 217 219 219 219 219 221 225 226 229 228 224 227 230 231 229 230 247 260 264 268 272 274 277 283 292 287 274 275 276 283 312 337 312 295 298 306 314 299 285 282 273 277 277
234 229 217 215 228 227 222 207 174 185 208 208 206 208 214 209 185 181 189 193 196 197 196 194 193 194 196 198 201 201 201 201 198 198 198 196 196 194 193 193 193 194 194 196 196 199 205 204 203 213 213 209 213 215 214 215 216 216 218 219 222 225 228 227 228 232 230 229 230 233 249 262 262 267 278 277 280 288 289 278 261 267 276 271 295 312 279 293 302 305 302 290 289 282 273 282 282
237 236 224 212 226 228 222 214 180 179 202 209 211 213 212 212 201 186 190 198 199 200 199 196 196 197 198 200 203 203 203 204 200 197 198 196 196 195 194 194 193 194 195 196 197 200 207 208 205 213 216 212 215 218 216 215 216 216 218 220 220 224 228 228 228 231 231 230 235 241 250 260 265 273 279 275 279 285 280 264 247 267 270 254 277 290 284 304 313 304 285 284 298 303 312 305 286
235 239 234 217 218 224 224 213 181 175 195 209 214 218 216 213 209 196 191 199 204 204 203 200 199 199 201 201 203 205 203 203 202 198 197 197 197 196 195 195 195 195 195 196 198 200 206 210 209 213 216 216 216 219 220 219 218 217 218 222 220 222 226 230 231 230 231 232 238 249 253 258 267 275 274 271 276 275 258 246 252 272 272 264 281 286 280 297 299 287 275 279 293 304 312 311 309
232 234 235 230 218 218 226 204 171 171 188 214 220 219 222 219 212 206 200 201 203 206 208 205 203 203 205 205 203 205 204 203 203 200 198 198 198 196 195 195 195 196 196 197 198 199 207 213 213 213 216 218 217 218 221 221 221 221 223 225 224 221 221 228 235 232 231 230 233 245 252 256 262 265 266 267 270 261 239 253 266 273 277 274 275 281 296 292 286 274 267 267 272 289 289 303 327
230 231 232 234 220 217 223 187 163 186 202 217 230 223 222 223 215 210 205 202 202 205 209 210 208 205 206 208 206 206 206 205 204 203 200 199 199 197 196 195 195 196 197 197 197 200 209 215 216 215 215 217 219 220 221 220 222 225 226 228 228 226 221 220 226 229 229 230 231 238 244 248 246 246 252 253 253 254 255 264 265 260 267 267 265 278 283 268 268 261 252 251 256 268 247 266 322
226 228 229 237 231 222 225 199 176 206 220 210 221 230 224 220 220 219 210 207 205 203 208 212 211 208 205 208 208 206 207 207 206 205 202 201 200 199 198 196 196 197 197 199 199 202 209 214 216 216 214 215 218 221 222 220 221 224 223 224 225 225 225 222 224 227 228 232 234 235 239 242 237 233 240 245 244 251 259 259 253 246 249 261 262 249 252 264 273 256 241 243 257 246 219 174 297
226 220 219 232 242 236 234 223 200 211 222 205 212 230 237 221 218 219 220 219 210 202 207 212 211 210 209 208 207 206 206 206 206 206 204 203 202 201 200 198 197 198 198 199 200 201 207 212 215 216 216 217 218 220 223 221 221 221 220 220 221 223 225 225 229 231 227 229 227 221 227 237 241 236 232 240 239 238 248 249 249 250 245 254 261 246 254 270 256 222 217 214 225 226 183 142 205
228 220 215 222 236 240 240 239 227 217 217 211 216 227 240 234 219 217 220 220 216 208 207 211 211 212 214 213 209 205 205 205 204 204 205 204 203 202 201 200 199 199 198 198 199 200 204 208 213 216 217 218 217 218 220 219 218 218 219 220 221 223 224 224 230 233 229 224 218 213 213 218 237 239 222 228 239 236 242 245 245 248 237 233 244 252 258 232 212 208 211 213 208 186 156 159 185
230 230 228 221 225 235 243 245 237 223 222 221 219 222 234 240 225 220 221 219 218 213 205 207 211 211 213 218 216 209 204 204 204 204 204 205 205 203 202 201 200 200 198 198 198 199 201 204 211 215 214 214 214 215 216 216 215 217 219 220 222 222 222 222 224 229 231 227 219 217 218 214 228 238 226 223 235 237 235 235 237 242 241 241 247 252 236 211 209 205 210 212 177 158 177 171 167
231 235 242 236 224 222 232 243 244 232 232 231 223 220 230 242 226 218 221 219 217 216 210 203 206 212 213 217 225 220 208 203 203 203 203 204 204 203 201 200 200 199 199 199 198 198 199 200 208 214 213 212 214 215 215 215 214 216 218 219 220 222 222 222 219 219 227 230 224 222 226 226 226 233 233 230 229 227 224 227 237 247 246 239 233 210 197 210 212 196 191 189 177 181 189 172 165
229 233 240 244 238 226 226 236 243 238 232 229 226 222 225 237 230 217 219 220 214 215 215 201 196 209 212 212 223 231 222 208 202 201 201 202 202 202 201 199 199 199 198 198 198 197 198 199 207 214 213 212 214 215 214 214 214 216 218 219 220 222 223 224 221 217 219 225 226 222 223 228 224 218 221 228 224 213 218 227 229 237 232 220 216 198 190 207 223 216 200 191 194 190 185 196 191
225 228 231 235 241 240 234 229 231 237 236 228 225 223 225 232 228 216 217 220 216 210 214 211 197 199 206 207 210 224 231 220 206 201 199 198 199 198 199 198 198 198 197 198 198 197 198 199 206 212 213 213 214 216 214 213 214 216 217 220 222 222 221 222 222 220 220 223 224 217 213 217 217 211 205 212 215 206 218 229 217 212 212 213 219 201 184 189 193 213 212 198 200 195 193 219 218
217 221 225 222 221 225 225 223 224 229 237 235 228 225 229 233 230 227 224 221 218 208 209 217 207 196 199 203 199 204 222 226 214 205 198 195 196 196 196 196 196 197 197 198 198 198 199 199 204 212 214 214 215 216 216 213 213 216 217 219 222 223 222 221 222 222 222 222 220 210 206 210 211 211 206 205 209 207 216 225 214 207 210 213 210 189 187 195 184 194 210 203 205 205 203 224 220
210 213 218 215 216 219 216 220 226 226 230 232 232 234 238 235 228 229 229 225 222 210 206 216 221 209 197 194 194 193 207 222 218 207 198 195 195 194 195 195 195 197 197 198 198 198 200 199 204 213 215 215 216 217 217 216 215 216 217 219 222 223 223 220 221 224 223 223 222 211 204 208 209 208 208 207 206 204 209 220 220 208 206 214 207 187 191 204 188 190 204 202 212 221 213 217 225
210 212 219 217 215 223 219 215 223 230 232 228 226 229 233 234 227 219 217 222 226 213 205 211 222 223 198 184 189 191 199 215 217 208 200 197 195 192 194 194 195 197 196 198 198 198 200 200 204 214 217 216 217 218 218 219 217 218 219 220 222 224 224 221 221 223 224 224 221 211 204 207 209 210 211 210 208 206 206 216 226 215 203 207 206 191 189 205 203 197 203 205 212 226 223 218 226
205 208 222 222 214 226 236 232 228 231 237 232 226 225 223 232 238 214 204 215 221 214 210 212 217 222 208 186 189 193 200 210 211 206 201 198 194 192 193 194 194 196 196 197 198 198 199 200 205 215 218 217 218 218 219 220 220 220 220 222 223 226 227 225 223 224 225 225 224 219 212 208 206 209 211 209 210 211 209 215 222 213 201 198 198 192 186 200 214 205 209 216 213 224 232 228 230
197 205 222 222 218 228 241 242 236 234 238 232 230 235 223 220 230 218 202 209 215 213 217 222 224 223 211 196 200 200 205 210 206 203 201 197 195 192 192 194 193 194 196 197 198 201 204 203 207 215 218 218 219 218 219 221 221 221 222 224 225 227 229 228 227 225 225 226 227 227 225 219 212 207 206 208 209 211 214 219 216 202 195 190 189 192 188 195 211 213 220 231 227 230 234 232 234
212 207 215 215 222 229 236 240 233 232 238 231 230 238 230 216 217 214 210 206 207 215 220 226 232 227 204 200 216 212 208 209 204 201 199 196 195 194 193 194 194 194 198 200 202 206 210 210 212 217 219 218 219 219 219 220 222 222 223 224 225 227 230 231 230 228 227 228 229 230 231 230 226 213 206 209 209 211 219 223 212 196 193 191 189 196 199 197 203 204 211 227 231 230 229 234 244
230 230 211 205 217 221 223 232 229 230 235 230 233 237 233 223 212 213 218 210 202 212 219 222 230 229 203 193 208 217 213 211 204 199 199 197 196 195 194 194 194 195 199 204 207 210 214 215 217 220 220 219 219 220 220 221 222 223 224 225 226 227 229 231 231 230 230 230 230 231 231 232 232 225 217 218 217 216 220 220 207 194 193 198 198 204 210 210 211 212 214 220 229 237 237 235 245
227 237 222 209 217 219 220 224 229 236 237 230 233 235 234 230 214 209 216 213 205 211 220 219 222 231 217 194 192 204 214 216 208 200 199 199 198 197 196 195 194 195 199 204 208 212 214 216 218 221 221 220 220 220 221 221 222 223 224 225 226 227 228 231 232 231 231 232 231 232 231 229 230 230 228 230 228 221 219 218 206 196 200 208 214 217 217 219 223 227 224 215 216 239 247 237 233
211 225 225 216 214 218 222 221 220 230 240 237 233 233 232 234 224 208 204 209 211 216 220 210 212 230 227 197 184 194 208 212 207 203 201 200 200 199 197 198 195 194 199 203 207 211 212 213 217 220 221 221 220 220 221 222 222 223 224 225 226 227 229 230 232 234 234 235 235 234 232 228 229 231 233 236 235 228 227 223 207 202 212 219 221 222 216 215 223 230 228 216 205 217 235 237 230
206 211 221 223 217 213 219 221 218 219 233 242 241 241 229 221 231 215 197 211 219 218 218 205 206 224 228 212 197 193 200 206 203 205 205 200 201 200 197 198 195 193 197 200 203 207 208 209 213 217 218 219 220 219 221 221 222 223 224 225 226 227 229 230 231 233 235 237 237 236 232 227 224 228 234 239 239 234 232 225 213 212 220 219 217 218 213 212 221 225 225 222 213 215 227 235 233